Temperature
17 14 14 14 14 15 16 16 15 15 16 16 15 14 14 15 14 13 13 14 14 14 14 14 14 14 14 13 13 13 12 12 11 11 11 11 10 10 10 10 9 9 9 9
14 14 14 15 15 16 16 16 15 15 16 15 14 14 14 14 13 14 14 13 14 13 13 13 13 13 13 13 13 13 12 12 12 11 11 10 10 10 10 9 9 9 9 8
14 15 16 16 16 16 16 15 15 15 15 15 15 14 14 14 14 14 14 14 14 14 14 13 13 13 13 13 13 13 12 12 12 11 11 10 10 10 10 10 9 9 8 8
14 14 16 16 16 16 15 16 15 16 14 13 14 12 13 13 12 12 12 13 13 14 14 14 13 13 13 13 12 12 12 12 11 11 11 10 10 10 9 9 9 8 8 7
14 15 15 15 16 15 15 16 16 16 14 13 12 13 13 12 12 11 11 12 13 14 14 14 13 13 12 12 12 12 12 11 11 11 10 10 10 9 9 8 8 8 7 7
14 16 16 15 16 16 15 15 13 11 11 12 12 11 12 11 12 12 11 12 13 13 13 13 13 12 12 12 12 11 11 11 11 10 10 10 9 9 8 8 7 7 7 7
15 15 16 16 15 15 15 13 12 13 11 11 12 12 13 13 12 12 12 12 12 13 13 13 12 12 12 12 11 11 11 11 10 10 9 9 9 8 8 7 7 6 6 6
13 14 14 14 14 13 13 13 12 13 12 12 13 12 13 13 13 14 14 13 12 12 13 13 13 12 12 11 11 11 10 10 10 9 9 8 8 7 7 6 6 6 5 5
13 13 14 14 15 14 13 12 12 12 12 12 12 12 13 13 12 12 12 12 12 12 13 13 13 12 12 11 11 10 10 10 9 9 8 8 7 7 6 6 5 5 5 4
13 14 14 14 15 14 14 12 11 12 12 12 12 13 13 14 13 11 10 11 12 12 12 13 12 12 11 11 10 10 9 9 8 8 8 7 7 6 6 5 5 4 4 4
14 14 13 13 13 13 13 13 12 11 10 11 11 13 13 13 12 11 10 12 12 12 13 12 12 11 11 10 10 9 9 8 8 7 7 7 6 6 5 5 4 4 3 3
13 11 11 12 13 12 12 12 11 11 11 10 10 12 13 12 12 12 12 13 13 13 13 12 12 11 10 10 9 9 8 8 7 7 6 6 5 5 4 4 4 3 3 2
13 12 12 12 13 13 12 12 12 11 11 9 10 12 13 12 12 13 13 13 13 12 12 12 11 11 10 9 9 8 8 7 7 6 6 5 5 4 4 4 3 3 2 2
13 11 12 12 12 12 12 12 12 11 10 10 10 12 13 12 12 12 13 13 13 12 12 11 11 10 10 9 8 8 7 7 6 6 5 5 4 4 3 3 3 2 2 1
12 12 12 12 13 13 12 13 12 11 11 11 12 12 13 12 11 13 13 13 12 12 11 11 10 10 9 8 8 7 7 6 6 5 5 4 4 3 3 2 2 1 1 0
11 12 12 13 13 12 12 12 12 12 12 11 11 12 12 13 13 12 12 12 11 12 11 11 10 9 9 8 7 7 6 6 5 4 4 3 3 3 2 2 1 1 0 -0
10 11 11 11 12 12 11 12 12 11 11 11 12 13 12 11 10 11 12 12 12 12 11 10 10 9 8 8 7 6 6 5 4 4 3 3 2 2 2 1 1 0 -0 -1
9 10 9 9 11 10 12 12 12 12 11 10 11 11 10 10 11 12 12 12 12 11 10 10 9 8 8 7 6 5 5 4 4 3 3 2 2 1 1 0 0 -0 -1 -1
9 9 8 8 9 9 11 12 12 11 11 11 10 10 10 10 10 9 11 11 11 11 10 9 8 8 7 6 5 5 4 4 3 2 2 2 1 1 0 -0 -1 -1 -2 -2
8 8 8 7 9 9 12 12 12 12 11 11 10 9 8 9 8 8 10 10 10 9 9 8 7 7 6 5 4 4 3 3 2 2 1 1 0 -0 -0 -1 -1 -2 -2 -3
8 8 7 7 8 9 10 11 11 11 11 11 11 10 9 8 9 10 9 9 9 8 8 7 6 6 5 4 4 3 3 2 1 1 1 0 -0 -0 -1 -1 -2 -2 -3 -3
8 7 7 6 7 9 10 9 10 11 11 11 11 11 10 10 9 9 8 8 8 7 6 6 5 5 4 3 3 2 2 1 1 0 0 -0 -1 -1 -2 -2 -2 -3 -3 -4
8 9 8 8 10 10 11 11 12 12 11 11 11 11 10 9 9 8 7 7 6 6 5 5 4 4 3 3 2 2 1 1 0 -0 -1 -1 -1 -2 -2 -3 -3 -4 -4 -5
8 8 7 7 8 9 10 11 12 12 11 11 11 10 10 9 8 7 6 6 5 5 4 4 3 3 3 2 2 1 0 -0 -1 -1 -1 -2 -2 -2 -3 -3 -4 -5 -5 -5
8 7 7 8 8 8 10 11 11 11 10 10 9 9 8 8 7 6 6 5 5 4 3 3 2 2 2 1 1 1 -0 -1 -1 -2 -2 -2 -3 -3 -4 -4 -5 -5 -6 -6
7 8 8 9 9 8 10 11 11 10 10 9 8 8 7 7 6 5 5 4 4 3 3 2 2 1 1 1 0 -0 -1 -1 -2 -2 -3 -3 -4 -4 -5 -5 -5 -5 -6 -6
Wind_Speed
2 3 5 8 9 7 5 5 6 7 5 5 9 10 10 8 8 10 9 9 8 7 4 4 5 6 7 6 7 6 6 5 5 3 3 2 1 1 1 2 3 3 5 5
3 5 10 8 6 6 5 5 5 5 3 3 7 10 9 9 11 14 15 13 11 8 6 5 5 5 5 5 5 6 6 5 5 4 3 2 2 1 1 3 4 5 6 6
9 7 5 6 6 6 5 5 5 5 4 4 4 8 6 5 6 8 11 12 12 13 11 8 6 5 5 5 4 5 5 5 5 4 3 3 3 3 2 2 3 5 7 7
7 7 5 6 6 7 6 6 5 3 0 5 1 6 8 5 5 9 11 11 12 11 10 9 8 6 5 4 4 5 5 5 4 5 4 3 2 0 2 2 3 5 7 7
7 5 7 8 8 8 7 4 2 1 2 3 3 5 9 3 7 11 12 13 13 12 12 11 9 8 6 5 5 5 5 4 4 4 5 4 2 1 1 2 3 4 5 7
7 5 7 8 3 5 4 4 6 5 4 4 6 7 8 6 10 10 12 13 13 12 11 10 9 7 6 5 4 4 5 3 3 4 4 3 2 1 2 3 3 4 4 4
4 5 4 5 5 2 5 5 3 3 2 7 5 6 10 8 8 11 16 17 14 13 12 11 11 9 8 7 6 5 5 3 2 3 2 2 2 2 2 3 3 4 4 4
6 7 7 7 8 7 6 8 7 5 5 6 3 7 8 6 5 6 10 12 12 12 12 13 13 11 9 8 7 6 5 4 3 2 2 1 1 1 2 3 3 4 4 5
9 7 1 3 4 10 7 6 7 5 2 4 7 8 8 2 3 3 8 11 14 14 13 13 12 11 10 9 8 7 6 4 3 3 2 1 1 2 3 4 4 4 5 5
9 5 2 0 3 1 6 7 5 5 4 5 7 6 5 5 5 5 9 12 13 12 12 12 11 11 10 8 7 6 6 5 4 3 2 2 2 3 3 4 5 6 6 5
8 6 2 1 8 9 6 5 5 5 5 5 5 7 6 7 8 10 11 12 14 15 14 12 11 9 9 7 7 6 5 4 3 3 2 2 3 3 4 4 6 7 7 7
8 6 5 8 6 6 8 9 9 6 6 6 4 8 6 6 7 8 10 10 11 12 11 10 10 9 8 7 6 6 5 4 4 3 3 3 4 4 5 6 7 7 8 8
9 7 3 3 2 3 5 7 8 5 4 5 5 8 4 2 3 6 8 9 9 10 9 8 8 9 8 8 6 5 5 4 4 3 3 3 4 5 7 8 8 8 8 9
8 6 8 10 7 7 6 7 9 8 6 7 10 11 7 5 6 7 8 9 9 9 10 10 9 8 7 7 6 5 4 4 3 3 3 5 6 7 8 8 8 8 9 9
7 6 7 7 6 6 8 9 10 12 12 12 11 12 14 10 11 10 8 8 8 9 9 10 9 8 7 6 5 4 4 3 3 3 4 6 7 7 8 8 9 9 9 10
5 6 5 4 5 6 7 10 11 12 11 12 12 14 11 6 5 6 7 9 10 10 10 9 8 8 7 6 5 4 4 4 3 4 6 6 7 7 8 8 9 9 9 10
6 7 5 4 2 1 8 11 12 9 9 10 14 15 6 4 7 8 9 9 10 10 9 9 9 8 7 7 6 5 4 3 3 4 6 7 7 8 9 9 9 9 10 9
9 8 5 3 3 7 10 4 7 8 9 10 9 7 5 6 4 1 4 8 8 8 8 8 7 6 5 4 4 3 3 3 4 5 6 7 8 8 9 8 9 10 9 9
4 8 5 5 5 8 10 6 6 7 8 7 9 7 3 4 3 3 1 5 6 7 7 6 6 5 4 4 3 2 2 3 4 6 7 8 8 8 9 9 10 10 9 10
4 5 6 5 5 8 9 3 3 3 7 5 7 8 7 7 3 5 3 4 5 6 6 5 5 4 3 3 2 2 3 4 6 7 8 8 8 9 10 10 11 9 9 11
5 4 5 6 6 9 8 4 6 4 8 2 6 7 9 8 6 4 6 5 5 5 5 5 5 3 3 2 2 3 4 6 7 7 8 8 9 9 10 10 9 10 10 11
10 8 7 7 6 10 6 8 9 8 2 3 4 6 7 5 5 6 6 6 6 5 4 4 3 2 2 2 2 4 6 7 7 7 8 9 9 9 10 10 10 10 10 11
9 10 8 11 10 5 7 8 6 5 5 5 5 5 7 7 6 6 5 5 4 4 3 3 3 2 3 3 3 5 7 7 7 8 9 10 10 9 9 10 11 10 9 10
6 4 6 6 8 6 6 5 4 5 6 5 5 6 8 7 7 6 5 4 3 3 2 2 2 2 4 5 5 6 7 7 7 9 10 9 10 10 9 9 9 9 10 10
8 8 6 6 6 3 6 7 7 5 5 5 5 5 7 7 6 6 5 4 3 2 2 2 3 4 6 6 7 7 7 7 8 9 10 10 9 10 10 9 9 11 10 12
6 8 9 9 9 8 7 6 7 8 7 7 6 5 4 6 6 5 4 3 3 3 2 3 4 5 7 7 8 8 8 7 8 9 9 8 8 9 9 10 12 16 18 24
Wind_Direction
128 104 212 220 207 206 217 236 263 260 252 208 238 251 251 226 187 178 180 175 167 160 147 110 94 91 90 88 93 96 103 106 109 104 108 104 88 34 15 348 325 313 308 306
70 238 231 219 210 205 217 249 270 285 287 225 260 265 253 220 199 189 184 182 174 162 149 131 111 98 99 107 103 105 110 112 112 115 119 123 120 85 308 326 332 323 317 311
196 230 220 191 205 211 231 227 240 256 312 320 308 300 273 245 199 191 188 182 175 169 164 157 140 127 120 123 130 125 120 114 110 109 98 73 55 30 6 345 325 320 318 312
228 243 210 203 214 195 245 234 215 215 12 289 312 290 277 239 205 195 193 186 182 173 164 161 156 151 149 152 139 127 123 116 113 111 111 113 120 171 265 283 300 315 323 317
235 208 190 206 218 191 218 211 191 190 183 291 255 228 281 226 220 216 204 196 189 180 171 168 165 162 156 151 140 132 121 113 111 108 118 117 121 203 284 314 322 322 322 322
230 222 198 198 184 175 152 70 43 48 76 283 228 195 273 224 216 209 201 197 190 180 172 165 160 152 149 147 140 136 128 123 119 115 118 130 148 225 307 315 317 316 313 313
259 247 215 152 129 102 114 96 359 327 340 253 220 202 251 249 230 204 194 192 187 178 171 166 164 165 163 162 161 155 148 151 148 133 138 163 189 215 250 276 288 300 306 305
207 254 216 187 173 177 180 156 177 219 238 280 273 228 255 279 276 213 184 176 175 178 177 175 175 172 171 171 170 167 166 171 172 164 182 198 210 222 251 265 272 280 282 285
191 237 257 193 175 150 159 198 182 155 242 265 274 282 301 300 4 128 155 164 180 184 183 181 178 175 174 175 177 176 172 174 184 185 190 218 240 249 267 279 281 282 282 287
171 210 233 186 109 157 164 158 124 157 206 255 283 276 256 260 237 193 181 185 188 186 186 184 182 179 178 177 175 172 171 178 186 191 203 219 250 266 274 285 290 290 290 289
168 175 215 163 196 197 168 180 174 170 178 184 259 271 232 230 217 206 205 198 191 190 190 187 184 180 174 168 167 170 175 175 188 204 217 239 267 278 284 283 283 284 285 287
164 144 203 235 238 197 186 190 163 176 225 197 208 267 274 252 221 204 208 203 196 192 188 182 175 168 168 170 171 175 180 187 201 207 219 245 267 280 285 284 284 283 283 283
156 145 156 320 297 201 209 206 188 167 156 182 197 260 297 310 213 207 204 202 193 185 178 171 167 171 175 176 177 182 187 195 203 207 227 260 275 280 280 281 282 283 282 285
140 148 180 199 208 189 206 213 189 172 198 223 225 248 270 251 237 226 213 201 189 182 176 173 175 177 177 177 180 184 194 199 206 216 241 263 270 272 274 277 280 280 281 283
133 182 209 224 226 193 211 218 202 203 211 219 239 242 251 235 225 222 209 190 179 179 178 179 178 176 174 176 182 186 199 211 214 231 254 264 270 274 277 279 280 281 281 282
130 174 193 241 233 219 241 240 224 223 226 233 251 261 254 236 209 209 202 188 187 187 185 179 173 172 178 183 188 196 211 224 225 242 260 270 276 279 280 281 282 283 283 282
158 152 159 234 260 4 262 235 221 218 216 206 233 249 245 213 207 208 202 193 193 189 180 176 176 179 184 189 190 200 217 230 241 256 269 276 278 281 282 285 287 285 284 282
152 148 151 173 144 229 242 233 207 217 240 222 230 245 220 205 198 215 194 187 188 179 173 172 170 173 179 181 188 196 216 237 254 267 275 278 281 282 284 285 284 284 283 283
147 144 140 156 208 267 286 254 194 203 260 228 220 224 188 132 78 345 260 178 180 174 165 164 165 164 162 174 182 188 244 259 268 273 277 280 280 283 285 286 285 285 287 288
77 113 136 154 187 235 248 221 157 125 272 241 191 188 170 139 168 243 192 143 138 136 139 141 140 137 152 181 175 200 257 268 270 272 275 278 278 279 282 283 284 284 286 288
138 143 168 179 213 254 249 177 130 183 246 214 172 176 170 184 200 172 137 128 132 130 131 132 133 148 185 197 188 245 265 266 268 273 277 279 278 278 280 281 282 286 290 291
172 173 187 166 199 248 208 151 185 214 185 155 161 168 172 172 132 134 138 136 133 128 130 136 143 185 227 223 222 259 267 269 273 277 280 282 282 285 291 286 288 287 289 293
195 190 185 191 211 236 182 197 206 167 173 178 168 165 154 153 160 156 153 149 147 147 152 154 165 219 267 262 244 260 271 277 280 282 282 285 286 283 283 284 289 292 290 291
231 176 167 223 250 237 219 218 203 183 181 172 160 154 154 161 163 160 158 161 162 163 169 169 183 247 275 277 271 263 274 279 280 282 285 286 288 289 285 284 285 288 289 289
202 172 188 231 253 258 246 219 201 177 155 142 138 146 157 154 160 166 169 178 183 189 199 201 226 254 268 277 278 277 277 279 281 283 286 287 285 286 290 286 281 285 277 281
190 178 185 220 212 196 218 203 176 167 171 162 147 134 135 151 158 159 172 185 189 204 221 248 259 265 272 276 278 280 278 277 281 288 288 287 288 289 290 293 295 290 290 295
Height
1541 1546 1549 1547 1546 1546 1546 1548 1548 1544 1536 1538 1539 1536 1532 1530 1531 1532 1533 1534 1535 1536 1537 1538 1539 1539 1540 1541 1542 1543 1544 1546 1547 1548 1549 1550 1550 1550 1550 1550 1549 1548 1547 1546
1545 1547 1540 1539 1541 1543 1544 1546 1546 1541 1535 1537 1537 1534 1527 1525 1525 1525 1527 1530 1532 1534 1535 1537 1538 1539 1540 1541 1542 1543 1544 1545 1546 1547 1548 1548 1548 1548 1548 1548 1547 1546 1544 1542
1543 1539 1535 1538 1540 1542 1542 1544 1543 1542 1538 1535 1537 1535 1526 1522 1521 1523 1524 1526 1528 1530 1532 1534 1536 1538 1539 1540 1541 1542 1543 1544 1545 1546 1546 1547 1547 1546 1546 1545 1544 1543 1541 1539
1539 1534 1534 1536 1538 1539 1544 1537 1538 1539 1544 1548 1542 1549 1529 1522 1521 1521 1522 1523 1525 1528 1530 1532 1534 1536 1538 1539 1540 1541 1542 1543 1544 1544 1545 1545 1544 1544 1543 1542 1541 1539 1538 1536
1535 1531 1532 1535 1534 1534 1537 1534 1536 1537 1542 1548 1545 1547 1531 1522 1522 1518 1518 1519 1521 1524 1527 1529 1532 1534 1536 1538 1539 1540 1541 1542 1542 1543 1543 1543 1542 1542 1541 1539 1538 1536 1534 1532
1529 1526 1527 1528 1528 1530 1532 1536 1541 1547 1550 1555 1544 1548 1534 1523 1513 1511 1512 1515 1518 1521 1525 1528 1530 1533 1535 1536 1538 1539 1540 1541 1541 1541 1541 1541 1540 1539 1538 1536 1534 1532 1530 1528
1530 1526 1524 1524 1529 1531 1534 1545 1556 1553 1559 1553 1538 1540 1526 1507 1504 1503 1505 1509 1514 1518 1521 1524 1527 1530 1532 1534 1536 1537 1538 1539 1539 1539 1539 1538 1537 1536 1535 1533 1530 1528 1525 1523
1535 1533 1523 1522 1525 1531 1535 1540 1554 1556 1556 1547 1533 1534 1515 1503 1499 1498 1501 1506 1511 1515 1518 1521 1524 1527 1529 1532 1534 1535 1536 1537 1537 1537 1536 1536 1535 1533 1531 1529 1527 1524 1521 1518
1531 1530 1520 1519 1519 1524 1534 1538 1536 1546 1546 1548 1537 1524 1509 1501 1499 1499 1501 1505 1508 1512 1515 1518 1521 1524 1527 1529 1531 1532 1533 1534 1534 1534 1534 1533 1531 1530 1527 1525 1523 1520 1516 1513
1519 1525 1520 1519 1520 1521 1524 1529 1540 1545 1549 1550 1539 1527 1516 1504 1502 1501 1502 1503 1505 1509 1512 1515 1518 1521 1524 1526 1528 1530 1531 1531 1531 1531 1530 1529 1528 1526 1523 1521 1518 1515 1511 1508
1513 1522 1524 1522 1523 1524 1526 1528 1531 1538 1542 1547 1544 1527 1503 1499 1497 1498 1498 1499 1502 1505 1508 1511 1515 1518 1521 1523 1525 1526 1527 1527 1528 1527 1526 1525 1523 1521 1519 1516 1513 1509 1506 1502
1510 1520 1526 1522 1516 1515 1518 1520 1527 1536 1536 1539 1541 1524 1495 1494 1493 1494 1496 1498 1500 1502 1505 1508 1512 1515 1517 1519 1521 1522 1523 1524 1524 1523 1522 1521 1518 1516 1513 1510 1507 1504 1500 1496
1505 1517 1526 1525 1523 1517 1516 1516 1518 1522 1528 1536 1537 1519 1495 1493 1492 1493 1494 1495 1497 1500 1503 1506 1509 1511 1514 1516 1517 1519 1519 1520 1519 1519 1517 1516 1513 1511 1508 1504 1501 1497 1493 1489
1498 1510 1517 1520 1515 1512 1513 1511 1513 1519 1526 1528 1521 1508 1496 1494 1492 1492 1492 1493 1494 1497 1500 1502 1505 1508 1510 1512 1514 1515 1515 1515 1515 1514 1512 1510 1508 1505 1502 1498 1495 1491 1487 1482
1496 1506 1506 1506 1503 1505 1506 1505 1507 1510 1510 1513 1505 1500 1490 1489 1488 1488 1488 1490 1492 1494 1496 1499 1501 1504 1506 1508 1510 1511 1511 1511 1510 1508 1507 1504 1502 1499 1496 1492 1488 1484 1480 1475
1495 1502 1503 1502 1500 1502 1503 1500 1500 1500 1500 1501 1498 1492 1482 1483 1484 1485 1485 1487 1488 1490 1493 1495 1498 1501 1503 1504 1506 1506 1506 1506 1505 1503 1501 1499 1496 1492 1489 1485 1481 1477 1472 1468
1496 1500 1506 1510 1503 1502 1505 1493 1492 1493 1490 1491 1491 1483 1479 1481 1481 1481 1482 1484 1485 1487 1490 1492 1495 1497 1499 1501 1502 1502 1502 1501 1499 1498 1495 1492 1489 1486 1482 1478 1474 1469 1464 1459
1493 1498 1506 1511 1508 1514 1492 1482 1482 1484 1482 1481 1479 1477 1477 1477 1478 1479 1480 1481 1483 1485 1487 1490 1492 1494 1496 1497 1498 1498 1497 1496 1494 1492 1489 1486 1483 1479 1475 1471 1466 1461 1456 1451
1488 1494 1506 1513 1511 1503 1488 1479 1479 1482 1480 1474 1475 1475 1476 1476 1478 1479 1479 1480 1482 1484 1486 1488 1490 1491 1493 1493 1493 1493 1492 1490 1488 1486 1483 1480 1476 1472 1467 1463 1458 1453 1448 1442
1489 1491 1502 1509 1508 1504 1483 1475 1474 1478 1480 1470 1470 1472 1474 1476 1482 1479 1478 1479 1480 1482 1484 1485 1487 1488 1489 1489 1489 1488 1486 1484 1482 1479 1476 1473 1469 1465 1460 1455 1450 1445 1439 1433
1492 1495 1500 1504 1503 1492 1475 1473 1475 1484 1477 1468 1468 1469 1471 1473 1474 1475 1476 1477 1479 1481 1482 1483 1484 1485 1485 1485 1484 1482 1481 1479 1476 1473 1469 1466 1462 1457 1452 1447 1442 1437 1431 1425
1483 1491 1496 1499 1500 1490 1469 1471 1473 1470 1466 1466 1467 1468 1469 1471 1472 1473 1475 1476 1477 1479 1480 1480 1481 1481 1481 1480 1479 1477 1475 1473 1469 1466 1462 1458 1454 1450 1445 1439 1433 1428 1422 1416
1473 1471 1475 1477 1473 1465 1463 1463 1462 1463 1464 1465 1466 1467 1468 1469 1470 1472 1473 1475 1476 1477 1477 1477 1478 1477 1477 1476 1474 1471 1469 1466 1462 1458 1454 1450 1446 1442 1437 1431 1425 1419 1414 1408
1465 1464 1467 1469 1463 1459 1459 1459 1460 1461 1462 1463 1464 1465 1466 1467 1469 1470 1472 1473 1473 1474 1474 1474 1474 1473 1472 1471 1469 1466 1463 1459 1455 1451 1447 1442 1437 1432 1428 1423 1417 1411 1406 1400
1456 1460 1462 1462 1458 1456 1455 1455 1456 1458 1459 1461 1462 1463 1464 1466 1467 1468 1469 1470 1471 1471 1471 1471 1470 1468 1467 1465 1463 1460 1456 1452 1448 1443 1439 1434 1429 1424 1418 1413 1409 1403 1398 1394
1451 1452 1455 1453 1449 1450 1450 1451 1453 1455 1456 1458 1459 1461 1462 1463 1464 1466 1466 1467 1468 1467 1467 1466 1465 1463 1461 1459 1456 1453 1450 1445 1441 1435 1431 1426 1421 1415 1410 1404 1398 1393 1390 1385